| time (UTC) | temp F | wind direction | speed knots | gust knots | rain 1hr in | rain 24hr in | rain mn in | humidity % | barometer mb |
| 20260504110322 | 53 | 136 | 10.4 | 14.8 | 0.00 | 0.00 | 0.00 | 56 | |
| 20260504100240 | 52 | 142 | 8.7 | 11.3 | 0.00 | 0.00 | 0.00 | 56 | |
| 20260504081634 | 54 | 162 | 6.1 | 9.6 | 0.00 | 0.00 | 0.00 | 50 | |
| 20260504081130 | 54 | 152 | 4.3 | 9.6 | 0.00 | 0.00 | 0.00 | 50 | |
| 20260504080627 | 54 | 161 | 7.0 | 9.6 | 0.00 | 0.00 | 0.00 | 50 | |
| 20260504080123 | 54 | 167 | 6.1 | 7.8 | 0.00 | 0.00 | 0.00 | 50 | |
| 20260504050439 | 55 | 170 | 5.2 | 6.1 | 0.00 | 0.00 | 0.00 | 50 | |
| 20260504045936 | 55 | 170 | 5.2 | 6.1 | 0.00 | 0.00 | 0.00 | 50 | |
| 20260504045432 | 55 | 163 | 3.5 | 5.2 | 0.00 | 0.00 | 0.00 | 49 | |
| 20260504044928 | 55 | 154 | 4.3 | 5.2 | 0.00 | 0.00 | 0.00 | 49 | |
| 20260504044426 | 55 | 183 | 3.5 | 4.3 | 0.00 | 0.00 | 0.00 | 49 | |
| 20260504043923 | 55 | 168 | 4.3 | 5.2 | 0.00 | 0.00 | 0.00 | 48 | |
| 20260504043420 | 55 | 162 | 3.5 | 5.2 | 0.00 | 0.00 | 0.00 | 47 | |
| 20260504042917 | 56 | 168 | 3.5 | 4.3 | 0.00 | 0.00 | 0.00 | 47 | |
| 20260504042413 | 56 | 168 | 3.5 | 4.3 | 0.00 | 0.00 | 0.00 | 47 | |
| 20260504041909 | 55 | 173 | 2.6 | 4.3 | 0.00 | 0.00 | 0.00 | 46 | |
| 20260504041406 | 55 | 194 | 1.7 | 2.6 | 0.00 | 0.00 | 0.00 | 46 | |
| 20260504040902 | 56 | 167 | 2.6 | 5.2 | 0.00 | 0.00 | 0.00 | 45 | |
| 20260504040400 | 56 | 172 | 3.5 | 6.1 | 0.00 | 0.00 | 0.00 | 44 | |
| 20260504035855 | 57 | 153 | 4.3 | 5.2 | 0.00 | 0.00 | 0.00 | 43 | |
| 20260504035353 | 57 | 181 | 2.6 | 2.6 | 0.00 | 0.00 | 0.00 | 43 | |
| 20260504034850 | 57 | 175 | 1.7 | 2.6 | 0.00 | 0.00 | 0.00 | 43 | |
| 20260504033850 | 57 | 213 | 2.6 | 4.3 | 0.00 | 0.00 | 0.00 | 41 | |
| 20260504033348 | 57 | 213 | 2.6 | 4.3 | 0.00 | 0.00 | 0.00 | 41 | |
| 20260504032844 | 57 | 197 | 0.9 | 1.7 | 0.00 | 0.00 | 0.00 | 41 | |
| 20260504032342 | 57 | 194 | 1.7 | 1.7 | 0.00 | 0.00 | 0.00 | 41 | |
| 20260504031838 | 57 | 172 | 3.5 | 4.3 | 0.00 | 0.00 | 0.00 | 41 | |
| 20260504031336 | 57 | 167 | 2.6 | 4.3 | 0.00 | 0.00 | 0.00 | 41 | |
| 20260504030832 | 57 | 215 | 2.6 | 2.6 | 0.00 | 0.00 | 0.00 | 41 | |
| 20260504030329 | 58 | 174 | 4.3 | 5.2 | 0.00 | 0.00 | 0.00 | 40 | |
| 20260504025825 | 58 | 161 | 1.7 | 4.3 | 0.00 | 0.00 | 0.00 | 39 | |
| 20260504025322 | 58 | 186 | 2.6 | 4.3 | 0.00 | 0.00 | 0.00 | 38 | |
| 20260504024819 | 58 | 196 | 2.6 | 2.6 | 0.00 | 0.00 | 0.00 | 38 | |
| 20260504024316 | 58 | 184 | 1.7 | 2.6 | 0.00 | 0.00 | 0.00 | 37 | |
| 20260504023812 | 58 | 177 | 2.6 | 2.6 | 0.00 | 0.00 | 0.00 | 38 | |
| 20260504023309 | 58 | 180 | 2.6 | 2.6 | 0.00 | 0.00 | 0.00 | 38 | |
| 20260504022805 | 58 | 192 | 2.6 | 2.6 | 0.00 | 0.00 | 0.00 | 37 | |
| 20260504022302 | 58 | 191 | 1.7 | 2.6 | 0.00 | 0.00 | 0.00 | 37 | |
| 20260504021758 | 59 | 201 | 0.9 | 1.7 | 0.00 | 0.00 | 0.00 | 38 | |
| 20260504021256 | 59 | 181 | 2.6 | 2.6 | 0.00 | 0.00 | 0.00 | 37 | |
| 20260504020752 | 60 | 198 | 0.9 | 1.7 | 0.00 | 0.00 | 0.00 | 37 | |
| 20260504020249 | 61 | 191 | 0.9 | 1.7 | 0.00 | 0.00 | 0.00 | 37 | |
| 20260504015745 | 61 | 195 | 1.7 | 2.6 | 0.00 | 0.00 | 0.00 | 36 | |
| 20260504015242 | 61 | 200 | 0.9 | 1.7 | 0.00 | 0.00 | 0.00 | 36 | |
| 20260504014737 | 61 | 203 | 0.9 | 2.6 | 0.00 | 0.00 | 0.00 | 37 | |
| 20260504014234 | 62 | 215 | 1.7 | 1.7 | 0.00 | 0.00 | 0.00 | 36 | |
| 20260504013732 | 62 | 210 | 0.9 | 1.7 | 0.00 | 0.00 | 0.00 | 36 | |
| 20260504013229 | 62 | 204 | 0.0 | 1.7 | 0.00 | 0.00 | 0.00 | 36 | |
| 20260504012726 | 62 | 211 | 0.9 | 2.6 | 0.00 | 0.00 | 0.00 | 37 | |
| 20260504012224 | 62 | 212 | 1.7 | 2.6 | 0.00 | 0.00 | 0.00 | 36 | |
| 20260504011720 | 63 | 220 | 2.6 | 2.6 | 0.00 | 0.00 | 0.00 | 35 | |
| 20260504011217 | 63 | 203 | 2.6 | 2.6 | 0.00 | 0.00 | 0.00 | 35 | |
| 20260504010713 | 63 | 209 | 1.7 | 1.7 | 0.00 | 0.00 | 0.00 | 35 | |
| 20260504010209 | 64 | 199 | 2.6 | 4.3 | 0.00 | 0.00 | 0.00 | 35 | |
| 20260504005706 | 64 | 209 | 2.6 | 4.3 | 0.00 | 0.00 | 0.00 | 34 | |
| 20260504005203 | 65 | 207 | 2.6 | 4.3 | 0.00 | 0.00 | 0.00 | 34 | |
| 20260504004700 | 66 | 210 | 2.6 | 2.6 | 0.00 | 0.00 | 0.00 | 33 | |
| 20260504004157 | 66 | 216 | 2.6 | 4.3 | 0.00 | 0.00 | 0.00 | 33 | |
| 20260504003654 | 66 | 219 | 2.6 | 2.6 | 0.00 | 0.00 | 0.00 | 33 | |
| 20260504003151 | 66 | 218 | 2.6 | 4.3 | 0.00 | 0.00 | 0.00 | 32 | |
| 20260504002647 | 67 | 219 | 4.3 | 6.1 | 0.00 | 0.00 | 0.00 | 31 | |
| 20260504002145 | 67 | 214 | 7.8 | 8.7 | 0.00 | 0.00 | 0.00 | 31 | |
| 20260504001643 | 68 | 215 | 4.3 | 6.1 | 0.00 | 0.00 | 0.00 | 30 | |
| 20260504001138 | 68 | 220 | 4.3 | 7.0 | 0.00 | 0.00 | 0.00 | 30 | |
| 20260504000636 | 68 | 209 | 6.1 | 7.0 | 0.00 | 0.00 | 0.00 | 28 | |
| 20260504000133 | 68 | 233 | 4.3 | 7.0 | 0.00 | 0.00 | 0.00 | 27 | |
| 20260503235631 | 68 | 222 | 5.2 | 6.1 | 0.00 | 0.00 | 0.00 | 28 | |
| 20260503235127 | 68 | 229 | 4.3 | 7.8 | 0.00 | 0.00 | 0.00 | 28 | |
| 20260503234626 | 68 | 227 | 5.2 | 7.8 | 0.00 | 0.00 | 0.00 | 27 | |
| 20260503234124 | 68 | 216 | 3.5 | 5.2 | 0.00 | 0.00 | 0.00 | 28 | |
| 20260503233620 | 68 | 213 | 5.2 | 8.7 | 0.00 | 0.00 | 0.00 | 27 | |
| 20260503233116 | 68 | 223 | 7.8 | 9.6 | 0.00 | 0.00 | 0.00 | 28 | |
| 20260503232613 | 69 | 225 | 5.2 | 9.6 | 0.00 | 0.00 | 0.00 | 27 | |
| 20260503232110 | 69 | 223 | 5.2 | 6.1 | 0.00 | 0.00 | 0.00 | 28 | |
| 20260503231608 | 69 | 230 | 6.1 | 9.6 | 0.00 | 0.00 | 0.00 | 28 | |
| 20260503231104 | 68 | 216 | 4.3 | 7.0 | 0.00 | 0.00 | 0.00 | 28 | |
| 20260503230601 | 69 | 190 | 6.1 | 8.7 | 0.00 | 0.00 | 0.00 | 30 | |
| 20260503230059 | 69 | 216 | 6.1 | 8.7 | 0.00 | 0.00 | 0.00 | 30 | |
| 20260503225555 | 69 | 231 | 7.8 | 8.7 | 0.00 | 0.00 | 0.00 | 29 | |
| 20260503225050 | 69 | 225 | 7.8 | 8.7 | 0.00 | 0.00 | 0.00 | 28 | |
| 20260503224548 | 69 | 222 | 6.1 | 8.7 | 0.00 | 0.00 | 0.00 | 27 | |
| 20260503224046 | 69 | 218 | 6.1 | 7.8 | 0.00 | 0.00 | 0.00 | 28 | |
| 20260503223544 | 69 | 232 | 7.8 | 8.7 | 0.00 | 0.00 | 0.00 | 27 | |
| 20260503223039 | 69 | 217 | 6.1 | 7.8 | 0.00 | 0.00 | 0.00 | 26 | |
| 20260503222538 | 70 | 225 | 9.6 | 13.0 | 0.00 | 0.00 | 0.00 | 27 | |
| 20260503222035 | 69 | 202 | 7.0 | 11.3 | 0.00 | 0.00 | 0.00 | 28 | |
| 20260503221533 | 70 | 212 | 3.5 | 8.7 | 0.00 | 0.00 | 0.00 | 28 | |
| 20260503221030 | 69 | 216 | 7.8 | 12.2 | 0.00 | 0.00 | 0.00 | 27 | |
| 20260503220526 | 69 | 227 | 6.1 | 7.8 | 0.00 | 0.00 | 0.00 | 29 | |
| 20260503220023 | 69 | 211 | 2.6 | 9.6 | 0.00 | 0.00 | 0.00 | 27 | |
| 20260503215520 | 69 | 202 | 9.6 | 11.3 | 0.00 | 0.00 | 0.00 | 28 | |
| 20260503215017 | 69 | 223 | 3.5 | 5.2 | 0.00 | 0.00 | 0.00 | 28 | |
| 20260503214516 | 69 | 210 | 3.5 | 5.2 | 0.00 | 0.00 | 0.00 | 28 | |
| 20260503214012 | 69 | 219 | 4.3 | 7.8 | 0.00 | 0.00 | 0.00 | 27 | |
| 20260503213511 | 70 | 217 | 5.2 | 8.7 | 0.00 | 0.00 | 0.00 | 28 | |
| 20260503213007 | 69 | 208 | 7.8 | 9.6 | 0.00 | 0.00 | 0.00 | 29 | |
| 20260503212504 | 70 | 225 | 7.0 | 8.7 | 0.00 | 0.00 | 0.00 | 31 | |
| 20260503212001 | 69 | 225 | 9.6 | 11.3 | 0.00 | 0.00 | 0.00 | 29 | |
| 20260503211459 | 69 | 204 | 4.3 | 6.1 | 0.00 | 0.00 | 0.00 | 28 | |
| 20260503210954 | 71 | 200 | 1.7 | 2.6 | 0.00 | 0.00 | 0.00 | 26 | |
| 20260503210451 | 70 | 202 | 6.1 | 7.8 | 0.00 | 0.00 | 0.00 | 29 | |
| 20260503205951 | 70 | 203 | 4.3 | 7.8 | 0.00 | 0.00 | 0.00 | 28 | |
| 20260503205449 | 70 | 216 | 5.2 | 8.7 | 0.00 | 0.00 | 0.00 | 30 | |
| 20260503204945 | 70 | 203 | 7.8 | 9.6 | 0.00 | 0.00 | 0.00 | 28 | |
| 20260503204442 | 70 | 210 | 1.7 | 6.1 | 0.00 | 0.00 | 0.00 | 29 | |
| 20260503203939 | 70 | 233 | 7.8 | 9.6 | 0.00 | 0.00 | 0.00 | 29 | |
| 20260503203437 | 70 | 205 | 6.1 | 9.6 | 0.00 | 0.00 | 0.00 | 32 | |
| 20260503202933 | 70 | 220 | 9.6 | 11.3 | 0.00 | 0.00 | 0.00 | 33 | |
| 20260503202432 | 70 | 224 | 5.2 | 6.1 | 0.00 | 0.00 | 0.00 | 31 | |
| 20260503201930 | 71 | 218 | 7.8 | 11.3 | 0.00 | 0.00 | 0.00 | 32 | |
| 20260503201427 | 70 | 223 | 6.1 | 8.7 | 0.00 | 0.00 | 0.00 | 31 | |
| 20260503200924 | 68 | 213 | 9.6 | 9.6 | 0.00 | 0.00 | 0.00 | 32 | |
| 20260503200420 | 69 | 183 | 6.1 | 7.8 | 0.00 | 0.00 | 0.00 | 32 | |
| 20260503195917 | 69 | 228 | 8.7 | 17.4 | 0.00 | 0.00 | 0.00 | 34 | |
| 20260503195415 | 69 | 205 | 7.0 | 9.6 | 0.00 | 0.00 | 0.00 | 33 | |
| 20260503194911 | 69 | 208 | 12.2 | 13.9 | 0.00 | 0.00 | 0.00 | 32 | |
| 20260503194408 | 70 | 214 | 5.2 | 7.8 | 0.00 | 0.00 | 0.00 | 30 | |
| 20260503193903 | 69 | 203 | 7.0 | 9.6 | 0.00 | 0.00 | 0.00 | 31 | |
| 20260503193359 | 70 | 214 | 8.7 | 13.9 | 0.00 | 0.00 | 0.00 | 31 | |
| 20260503192855 | 70 | 205 | 5.2 | 8.7 | 0.00 | 0.00 | 0.00 | 32 | |
| 20260503192350 | 70 | 215 | 4.3 | 5.2 | 0.00 | 0.00 | 0.00 | 31 | |
| 20260503191847 | 69 | 197 | 3.5 | 6.1 | 0.00 | 0.00 | 0.00 | 32 | |
| 20260503191344 | 70 | 231 | 7.8 | 13.0 | 0.00 | 0.00 | 0.00 | 31 | |
| 20260503190841 | 70 | 225 | 7.0 | 11.3 | 0.00 | 0.00 | 0.00 | 30 | |
| 20260503190338 | 71 | 196 | 0.9 | 2.6 | 0.00 | 0.00 | 0.00 | 30 | |
| 20260503185835 | 71 | 227 | 1.7 | 5.2 | 0.00 | 0.00 | 0.00 | 30 | |
| 20260503185331 | 69 | 259 | 1.7 | 6.1 | 0.00 | 0.00 | 0.00 | 29 | |
| 20260503184826 | 70 | 204 | 6.1 | 8.7 | 0.00 | 0.00 | 0.00 | 30 | |
| 20260503184322 | 70 | 206 | 1.7 | 2.6 | 0.00 | 0.00 | 0.00 | 31 | |
| 20260503183818 | 68 | 217 | 11.3 | 13.0 | 0.00 | 0.00 | 0.00 | 30 | |
| 20260503183316 | 68 | 209 | 4.3 | 11.3 | 0.00 | 0.00 | 0.00 | 31 | |
| 20260503182813 | 70 | 203 | 1.7 | 8.7 | 0.00 | 0.00 | 0.00 | 30 | |
| 20260503182312 | 69 | 210 | 0.9 | 5.2 | 0.00 | 0.00 | 0.00 | 31 | |
| 20260503181809 | 68 | 202 | 3.5 | 11.3 | 0.00 | 0.00 | 0.00 | 32 | |
| 20260503181306 | 67 | 218 | 7.8 | 11.3 | 0.00 | 0.00 | 0.00 | 34 | |
| 20260503180802 | 68 | 227 | 7.8 | 11.3 | 0.00 | 0.00 | 0.00 | 33 | |
| 20260503180300 | 68 | 216 | 13.0 | 14.8 | 0.00 | 0.00 | 0.00 | 33 | |
| 20260503175756 | 68 | 220 | 6.1 | 7.8 | 0.00 | 0.00 | 0.00 | 34 | |
| 20260503175254 | 70 | 211 | 12.2 | 13.9 | 0.00 | 0.00 | 0.00 | 34 | |
| 20260503174749 | 70 | 221 | 6.1 | 7.8 | 0.00 | 0.00 | 0.00 | 36 | |
| 20260503174248 | 69 | 236 | 6.1 | 7.0 | 0.00 | 0.00 | 0.00 | 36 | |
| 20260503173748 | 68 | 196 | 4.3 | 7.0 | 0.00 | 0.00 | 0.00 | 36 | |
| 20260503173244 | 68 | 222 | 0.9 | 1.7 | 0.00 | 0.00 | 0.00 | 35 | |
| 20260503172741 | 67 | 210 | 6.1 | 7.8 | 0.00 | 0.00 | 0.00 | 36 | |
| 20260503172238 | 68 | 237 | 9.6 | 11.3 | 0.00 | 0.00 | 0.00 | 35 | |
| 20260503171734 | 68 | 251 | 2.6 | 4.3 | 0.00 | 0.00 | 0.00 | 36 | |
| 20260503171232 | 68 | 207 | 0.9 | 1.7 | 0.00 | 0.00 | 0.00 | 36 | |
| 20260503170729 | 68 | 218 | 2.6 | 5.2 | 0.00 | 0.00 | 0.00 | 35 | |
| 20260503170226 | 68 | 235 | 2.6 | 4.3 | 0.00 | 0.00 | 0.00 | 36 | |
| 20260503160147 | 64 | 216 | 2.6 | 5.2 | 0.00 | 0.00 | 0.00 | 36 | |
| 20260503150617 | 61 | 192 | 7.8 | 9.6 | 0.00 | 0.00 | 0.00 | 40 | |
| 20260503150114 | 60 | 197 | 0.9 | 7.0 | 0.00 | 0.00 | 0.00 | 39 | |
| 20260503131007 | 55 | 204 | 5.2 | 13.9 | 0.00 | 0.00 | 0.00 | 45 | |
| 20260503130504 | 55 | 173 | 10.4 | 18.2 | 0.00 | 0.00 | 0.00 | 44 |